Regional Weather Roundup
Issued by NWS Cleveland, OH

Home | Current Version | Previous Version | Text Only | Print | Product List | Glossary On
Versions: 1 2 3 4 5 6 7 8 9 10 11 12 13 14 15 16 17 18 19 20 21 22 23 24 25 26 27 28 29 30 31 32 33 34 35 36 37 38 39 40 41 42 43 44 45 46 47 48 49 50
000
ASUS41 KCLE 201612
RWRCLE
OHIO REGIONAL WEATHER ROUNDUP
NATIONAL WEATHER SERVICE WILMINGTON, OH
1200 PM EDT TUE AUG 20 2019

NOTE: "FAIR" INDICATES FEW OR NO CLOUDS BELOW 12,000 FEET WITH NO
SIGNIFICANT WEATHER AND/OR OBSTRUCTIONS TO VISIBILITY.

OHZ001>008-015>018-024>027-034-035-043-044-201700-
   NORTHWEST OHIO

CITY           SKY/WX    TMP DP  RH WIND       PRES   REMARKS
DEFIANCE       FAIR      85  72  65 SW12      30.05F HX  91
FINDLAY        FAIR      87  73  62 S7        30.06F HX  94
TOLEDO EXPRESS FAIR      86  72  62 VRB7      30.05F HX  92
TOLEDO EXEC    FAIR      85  73  67 S8        30.06F HX  91
LIMA           FAIR      85  73  67 S6        30.07S HX  91
$$

OHZ009>014-019>023-028>033-038-089-201700-
   NORTHEAST OHIO

CITY           SKY/WX    TMP DP  RH WIND       PRES   REMARKS
CLE-HOPKINS    FAIR      85  69  58 S8        30.10F
CLE-LAKEFRONT  FAIR      86  68  54 S8        30.06F
CUY CO. ARPT   MOSUNNY   84  70  61 S8        30.09S
LORAIN-ELYRIA  FAIR      85  68  56 S13       30.08F
ASHTABULA      FAIR      82  71  69 S6        30.12S
AKRON-CANTON   PTSUNNY   84  70  62 S8        30.11F
WOOSTER        FAIR      82  71  69 SE8       30.11F
MANSFIELD      FAIR      86  72  62 S9        30.11S HX  92
YOUNGSTOWN     PTSUNNY   81  67  62 SW3       30.12F
$$

OHZ042-051>053-060>062-070>072-077>081-201700-
  SOUTHWEST OHIO

CITY           SKY/WX    TMP DP  RH WIND       PRES   REMARKS
CINC-COVINGTON PTSUNNY   90  71  53 W8        30.09S HX  96
CINC-LUNKEN    FAIR      88  75  65 SW6       30.07F HX  97
HAMILTON       FAIR      90  73  57 VRB3      30.08S HX  98
DAYTON         PTSUNNY   88  71  57 SW9       30.09S HX  94
WRIGHT-PAT AFB FAIR      88  72  57 S6        30.07F HX  95
DAYTON GENERAL FAIR      89  71  55 S5        30.08S HX  95
WILMINGTON     FAIR      85  76  74 S3        30.08F HX  94
$$

OHZ036-037-039>041-045>050-054>059-063>069-073>076-082>088-201700-
  CENTRAL AND SOUTHEAST OHIO

CITY           SKY/WX    TMP DP  RH WIND       PRES   REMARKS
COLUMBUS       FAIR      86  69  56 S9        30.07F HX  90
OSU AIRPORT    FAIR      86  70  58 S8        30.08F HX  90
BOLTON FIELD   SUNNY     82  73  74 S12G17    30.09F
RICKENBACK AFB SUNNY     84  72  65 S9        30.07F
NEWARK         FAIR      86  72  62 W6        30.09S HX  92
MARION           N/A    N/A N/A N/A MISG        N/A
LANCASTER      FAIR      85  71  63 VRB7      30.09F HX  90
ZANESVILLE     FAIR      83  69  62 CALM      30.10F
NEW PHILLY     FAIR      82  71  69 SE3       30.10F
$$



USA.gov is the U.S. government's official web portal to all federal, state and local government web resources and services.